Simultaneous Nadir Overpasses (SNOs) Predictions

Prediction of SNOs over PacNW region [( 10.00, 139.50) to ( 22.70, 165.60)] between NOAA-19 and NPP Satellites:

Table of predicted SNOs over PacNW region for the next 30.0 days since TLE Epoch: 4/2/2013
Index Date (NOAA-19) Time (NOAA-19) NOAA-19 Lat,Lon Date (NPP) Time (NPP) NPP Lat,Lon Distance(km) Time Diff (sec)
1 04/13/2013 03:45:22 22.39, 144.23 04/13/2013 03:45:27 21.68, 141.10 332.47 5
2 04/13/2013 16:21:42 10.04, 140.41 04/13/2013 16:18:05 8.43, 137.73 343.97 217
3 04/25/2013 03:12:49 10.08, 154.52 04/25/2013 03:16:25 8.39, 150.57 472.97 216
4 04/25/2013 15:49:29 21.11, 150.39 04/25/2013 15:49:02 21.78, 147.22 337.00 27
5 04/26/2013 03:05:30 22.67, 154.22 04/26/2013 03:01:53 24.17, 151.56 318.16 217
